Location: New Canada
(47.1017°N, 68.5042°W)
Time: 07:05:11
(UTC+00:00)

deb Kosmos - Visible Passes

Search period start: 06 December 2023 00:00
Search period end: 16 December 2023 00:00
Orbit: 689 x 706 km, 74.0° (Epoch: 05 December)

Date Brightness Start Highest point End Pass type
(mag) Time Alt. Az. Time Alt. Az. Time Alt. Az.
08 Dec ? 11:16:58 10° N 11:19:56 16° NE 11:22:52 10° E visible
10 Dec ? 11:00:52 10° N 11:04:09 17° NE 11:07:24 10° E visible
12 Dec ? 10:44:46 10° N 10:48:19 19° NE 10:51:51 10° E visible
13 Dec ? 11:26:19 10° NNW 11:31:05 48° ENE 11:35:50 10° SE visible
14 Dec ? 10:28:40 10° N 10:32:28 22° NE 10:36:14 10° ESE visible
15 Dec ? 09:32:43 10° NNE 09:33:27 10° NE 09:34:10 10° NE visible
15 Dec ? 11:10:18 10° NNW 11:15:09 55° ENE 11:19:58 10° SE visible
